IW4BGV-3 Weather Reports


time (UTC)temp
C
wind
direction
speed
KPH
gust
KPH
rain 1hr
cm
rain 24hr
cm
rain mn
cm
humidity
%
barometer
mb
20260906080029 28 249 4.8 8.0 0.00 0.00 0.00 62 1020.5
20260906075528 27 332 8.0 11.3 0.00 0.00 0.00 62 1020.5
20260906075030 27 324 4.8 9.7 0.00 0.00 0.00 62 1020.4
20260906074528 27 258 3.2 8.0 0.00 0.00 0.00 62 1020.4
20260906073528 27 323 4.8 9.7 0.00 0.00 0.00 61 1020.4
20260906072528 27 286 3.2 8.0 0.00 0.00 0.00 61 1020.2
20260906072030 27 310 3.2 8.0 0.00 0.00 0.00 60 1020.2
20260906071527 27 270 3.2 9.7 0.00 0.00 0.00 60 1020.2
20260906071030 27 297 1.6 9.7 0.00 0.00 0.00 61 1020.1
20260906070528 26 315 0.0 4.8 0.00 0.00 0.00 61 1020.1
20260906065030 25 263 0.0 1.6 0.00 0.00 0.00 63 1020.0
20260906064528 25 182 0.0 1.6 0.00 0.00 0.00 63 1019.9
20260906064029 25 221 1.6 3.2 0.00 0.00 0.00 63 1019.8
20260906063529 25 184 1.6 4.8 0.00 0.00 0.00 63 1019.9
20260906063030 24 190 4.8 8.0 0.00 0.00 0.00 63 1019.8
20260906062030 24 175 4.8 8.0 0.00 0.00 0.00 64 1019.9
20260906061529 23 161 3.2 4.8 0.00 0.00 0.00 64 1019.8
20260906061031 23 174 4.8 4.8 0.00 0.00 0.00 65 1019.7
20260906060030 23 182 3.2 8.0 0.00 0.00 0.00 65 1019.6
20260906055528 23 168 1.6 4.8 0.00 0.00 0.00 66 1019.6
20260906055031 22 197 3.2 9.7 0.00 0.00 0.00 66 1019.5
20260906054529 22 213 4.8 8.0 0.00 0.00 0.00 66 1019.4
20260906054030 22 181 4.8 8.0 0.00 0.00 0.00 66 1019.3
20260906053528 22 180 4.8 9.7 0.00 0.00 0.00 66 1019.2
20260906053030 22 193 3.2 8.0 0.00 0.00 0.00 67 1019.4
20260906052529 22 184 3.2 9.7 0.00 0.00 0.00 67 1019.3
20260906052030 22 214 3.2 4.8 0.00 0.00 0.00 67 1019.4
20260906051528 22 196 1.6 4.8 0.00 0.00 0.00 67 1019.3
20260906051030 22 202 3.2 4.8 0.00 0.00 0.00 67 1019.3
20260906050528 21 201 1.6 4.8 0.00 0.00 0.00 67 1019.3
20260906050030 21 192 3.2 8.0 0.00 0.00 0.00 67 1019.2
20260906045528 21 198 0.0 4.8 0.00 0.00 0.00 67 1019.2
20260906044528 21 201 1.6 3.2 0.00 0.00 0.00 67 1019.0
20260906044030 21 181 1.6 4.8 0.00 0.00 0.00 67 1019.0
20260906043529 21 188 4.8 8.0 0.00 0.00 0.00 67 1019.0
20260906043030 21 187 3.2 8.0 0.00 0.00 0.00 67 1018.9
20260906042528 21 212 3.2 8.0 0.00 0.00 0.00 67 1018.9
20260906042029 21 189 3.2 8.0 0.00 0.00 0.00 67 1018.9
20260906041528 21 187 3.2 4.8 0.00 0.00 0.00 67 1018.8
20260906041029 21 180 1.6 4.8 0.00 0.00 0.00 67 1018.8
20260906040529 21 180 1.6 4.8 0.00 0.00 0.00 66 1018.8
20260906040030 21 180 3.2 3.2 0.00 0.00 0.00 66 1018.8
20260906035030 21 172 0.0 3.2 0.00 0.00 0.00 65 1018.6
20260906033029 21 190 3.2 4.8 0.00 0.00 0.00 64 1018.5
20260906032527 21 215 3.2 4.8 0.00 0.00 0.00 64 1018.5
20260906032029 21 224 0.0 4.8 0.00 0.00 0.00 64 1018.5
20260906031528 21 224 1.6 4.8 0.00 0.00 0.00 64 1018.5
20260906031030 21 204 1.6 3.2 0.00 0.00 0.00 64 1018.2
20260906030528 21 182 0.0 3.2 0.00 0.00 0.00 64 1018.3
20260906030029 21 202 0.0 3.2 0.00 0.00 0.00 63 1018.3
20260906025528 21 270 0.0 4.8 0.00 0.00 0.00 63 1018.3
20260906025030 22 0 1.6 8.0 0.00 0.00 0.00 64 1018.4
20260906024528 22 338 4.8 8.0 0.00 0.00 0.00 64 1018.4
20260906024029 22 296 1.6 4.8 0.00 0.00 0.00 64 1018.2
20260906023528 22 302 0.0 1.6 0.00 0.00 0.00 63 1018.1
20260906023030 22 207 0.0 3.2 0.00 0.00 0.00 63 1017.9
20260906022528 22 208 3.2 4.8 0.00 0.00 0.00 63 1017.8
20260906022029 22 198 1.6 3.2 0.00 0.00 0.00 63 1017.9
20260906021528 22 225 1.6 1.6 0.00 0.00 0.00 63 1017.8
20260906021029 22 205 1.6 3.2 0.00 0.00 0.00 63 1017.7
20260906020528 22 225 1.6 3.2 0.00 0.00 0.00 63 1017.9
20260906020029 22 248 1.6 3.2 0.00 0.00 0.00 62 1017.8
20260906015529 22 199 1.6 3.2 0.00 0.00 0.00 62 1017.8
20260906015030 22 209 1.6 3.2 0.00 0.00 0.00 62 1017.7
20260906014528 22 227 1.6 4.8 0.00 0.00 0.00 62 1017.7
20260906014029 22 208 3.2 4.8 0.00 0.00 0.00 62 1017.6
20260906013528 22 205 3.2 4.8 0.00 0.00 0.00 62 1017.5
20260906013030 22 229 1.6 4.8 0.00 0.00 0.00 62 1017.5
20260906012528 22 209 3.2 4.8 0.00 0.00 0.00 62 1017.4
20260906012029 22 227 3.2 8.0 0.00 0.00 0.00 61 1017.4
20260906011528 22 210 3.2 4.8 0.00 0.00 0.00 61 1017.5
20260906011030 22 202 3.2 4.8 0.00 0.00 0.00 61 1017.4
20260906010528 22 236 3.2 3.2 0.00 0.00 0.00 60 1017.4
20260906010029 22 216 3.2 4.8 0.00 0.00 0.00 60 1017.4
20260906005528 22 214 1.6 3.2 0.00 0.00 0.00 60 1017.3
20260906005030 22 177 1.6 3.2 0.00 0.00 0.00 59 1017.4
20260906004528 22 212 1.6 3.2 0.00 0.00 0.00 59 1017.5
20260906004029 22 202 1.6 1.6 0.00 0.00 0.00 59 1017.6
20260906003528 22 196 0.0 1.6 0.00 0.00 0.00 58 1017.6
20260906003029 22 245 0.0 0.0 0.00 0.00 0.00 58 1017.6
20260906002528 22 254 0.0 0.0 0.00 0.00 0.00 58 1017.6
20260906002029 22 232 0.0 0.0 0.00 0.00 0.00 58 1017.4
20260906001528 22 227 1.6 3.2 0.00 0.00 0.00 58 1017.4
20260906001030 23 211 3.2 4.8 0.00 0.00 0.00 58 1017.4
20260906000527 23 199 3.2 4.8 0.00 0.00 0.00 57 1017.4
20260906000029 23 194 3.2 4.8 0.00 0.00 0.00 57 1017.5
20260905235029 23 202 1.6 4.8 0.00 0.00 0.00 56 1017.5
20260905234528 23 212 3.2 4.8 0.00 0.00 0.00 56 1017.4
20260905234030 23 214 3.2 3.2 0.00 0.00 0.00 56 1017.4
20260905233029 23 196 1.6 4.8 0.00 0.00 0.00 55 1017.3
20260905232528 23 223 1.6 3.2 0.00 0.00 0.00 55 1017.3
20260905232029 23 220 1.6 3.2 0.00 0.00 0.00 55 1017.3
20260905231528 24 204 1.6 1.6 0.00 0.00 0.00 55 1017.4
20260905231029 24 220 0.0 1.6 0.00 0.00 0.00 55 1017.5
20260905230528 24 207 3.2 4.8 0.00 0.00 0.00 55 1017.4
20260905225528 24 202 3.2 8.0 0.00 0.00 0.00 54 1017.3
20260905225031 24 202 3.2 8.0 0.00 0.00 0.00 54 1017.3
20260905224528 24 203 4.8 9.7 0.00 0.00 0.00 54 1017.3
20260905223528 25 223 1.6 3.2 0.00 0.00 0.00 54 1017.3
20260905222528 25 201 1.6 4.8 0.00 0.00 0.00 53 1017.2
20260905221528 25 187 4.8 9.7 0.00 0.00 0.00 53 1017.2
20260905221029 25 193 4.8 8.0 0.00 0.00 0.00 53 1017.1
20260905220030 25 185 4.8 9.7 0.00 0.00 0.00 53 1017.0
20260905215528 25 193 3.2 9.7 0.00 0.00 0.00 53 1017.2
20260905215030 25 189 3.2 9.7 0.00 0.00 0.00 53 1017.2
20260905214528 25 192 4.8 11.3 0.00 0.00 0.00 53 1017.2
20260905214030 25 207 3.2 8.0 0.00 0.00 0.00 52 1017.2
20260905213528 25 203 3.2 4.8 0.00 0.00 0.00 52 1017.2
20260905213030 25 174 1.6 3.2 0.00 0.00 0.00 52 1016.9
20260905212528 25 156 1.6 3.2 0.00 0.00 0.00 52 1016.9
20260905212029 25 184 0.0 3.2 0.00 0.00 0.00 52 1017.0
20260905211528 25 180 1.6 3.2 0.00 0.00 0.00 52 1017.0
20260905211030 25 195 1.6 4.8 0.00 0.00 0.00 52 1016.9
20260905210528 25 202 1.6 1.6 0.00 0.00 0.00 51 1016.9
20260905210029 25 202 1.6 3.2 0.00 0.00 0.00 51 1016.9
20260905205528 25 220 0.0 1.6 0.00 0.00 0.00 51 1016.9
20260905205030 25 183 1.6 3.2 0.00 0.00 0.00 51 1016.8
20260905204528 25 202 0.0 0.0 0.00 0.00 0.00 51 1016.8
20260905203528 25 198 1.6 1.6 0.00 0.00 0.00 51 1016.7
20260905202528 26 248 0.0 0.0 0.00 0.00 0.00 51 1016.9
20260905201528 26 255 0.0 0.0 0.00 0.00 0.00 50 1016.7
20260905201029 26 213 0.0 8.0 0.00 0.00 0.00 50 1016.7
20260905200528 26 233 0.0 3.2 0.00 0.00 0.00 50 1016.6
20260905200030 26 211 1.6 1.6 0.00 0.00 0.00 50 1016.6
20260905195528 26 225 0.0 0.0 0.00 0.00 0.00 50 1016.5
20260905195029 26 225 0.0 0.0 0.00 0.00 0.00 49 1016.6
20260905194528 27 225 0.0 0.0 0.00 0.00 0.00 49 1016.6
20260905194030 27 225 0.0 0.0 0.00 0.00 0.00 49 1016.5
20260905193528 27 217 0.0 0.0 0.00 0.00 0.00 50 1016.5
20260905193029 27 247 1.6 3.2 0.00 0.00 0.00 49 1016.4
20260905192528 27 225 0.0 1.6 0.00 0.00 0.00 49 1016.4
20260905192029 27 225 0.0 0.0 0.00 0.00 0.00 49 1016.3
20260905191529 27 225 0.0 0.0 0.00 0.00 0.00 49 1016.3
20260905191029 27 238 0.0 0.0 0.00 0.00 0.00 48 1016.2
20260905190528 28 225 0.0 0.0 0.00 0.00 0.00 48 1016.2
20260905190030 28 202 0.0 0.0 0.00 0.00 0.00 48 1016.2
20260905185528 28 180 0.0 0.0 0.00 0.00 0.00 48 1016.0
20260905185030 28 112 0.0 0.0 0.00 0.00 0.00 48 1016.0
20260905184529 28 109 0.0 0.0 0.00 0.00 0.00 48 1016.0
20260905184029 28 99 1.6 8.0 0.00 0.00 0.00 48 1015.9
20260905183528 28 107 3.2 4.8 0.00 0.00 0.00 48 1015.9
20260905183029 28 73 1.6 4.8 0.00 0.00 0.00 47 1015.9
20260905182528 28 92 1.6 4.8 0.00 0.00 0.00 47 1015.8
20260905181527 28 68 1.6 3.2 0.00 0.00 0.00 46 1015.7
20260905180529 28 67 1.6 3.2 0.00 0.00 0.00 46 1015.7
20260905180030 29 68 0.0 1.6 0.00 0.00 0.00 45 1015.6
20260905175529 29 45 0.0 1.6 0.00 0.00 0.00 45 1015.5
20260905175031 29 25 1.6 3.2 0.00 0.00 0.00 45 1015.5
20260905173529 30 29 1.6 3.2 0.00 0.00 0.00 44 1015.5
20260905173031 30 26 1.6 4.8 0.00 0.00 0.00 43 1015.4
20260905172529 30 31 1.6 9.7 0.00 0.00 0.00 43 1015.3
20260905172031 30 45 3.2 9.7 0.00 0.00 0.00 42 1015.3
20260905171529 30 62 1.6 16.1 0.00 0.00 0.00 42 1015.3
20260905171030 30 39 6.4 16.1 0.00 0.00 0.00 42 1015.3
20260905170529 30 17 8.0 14.5 0.00 0.00 0.00 41 1015.3
20260905170031 30 45 8.0 9.7 0.00 0.00 0.00 41 1015.2
20260905165529 31 66 8.0 14.5 0.00 0.00 0.00 41 1015.1
20260905165030 31 38 8.0 14.5 0.00 0.00 0.00 41 1015.1
20260905164528 31 57 4.8 11.3 0.00 0.00 0.00 40 1015.3
20260905163529 31 52 4.8 12.9 0.00 0.00 0.00 38 1015.2
20260905163030 31 68 4.8 16.1 0.00 0.00 0.00 38 1015.3
20260905162529 31 48 9.7 12.9 0.00 0.00 0.00 38 1015.1
20260905160529 31 36 6.4 9.7 0.00 0.00 0.00 37 1015.0
20260905160032 31 58 11.3 24.1 0.00 0.00 0.00 38 1014.9
20260905155529 31 56 11.3 19.3 0.00 0.00 0.00 39 1014.9
20260905155030 31 28 9.7 19.3 0.00 0.00 0.00 39 1014.8
20260905154529 31 61 9.7 19.3 0.00 0.00 0.00 39 1014.9
20260905154031 31 68 12.9 20.9 0.00 0.00 0.00 39 1014.9
20260905153528 32 61 9.7 20.9 0.00 0.00 0.00 40 1014.9
20260905153031 32 68 11.3 19.3 0.00 0.00 0.00 40 1014.9
20260905152030 32 65 9.7 16.1 0.00 0.00 0.00 40 1014.9
20260905151528 32 80 14.5 19.3 0.00 0.00 0.00 40 1015.0
20260905151030 32 53 14.5 22.5 0.00 0.00 0.00 40 1014.9
20260905150529 32 51 9.7 12.9 0.00 0.00 0.00 40 1014.9
20260905150030 32 68 14.5 14.5 0.00 0.00 0.00 40 1014.9
20260905145031 33 62 8.0 16.1 0.00 0.00 0.00 40 1015.0
20260905144529 33 68 11.3 16.1 0.00 0.00 0.00 39 1014.9
20260905143529 33 53 8.0 22.5 0.00 0.00 0.00 40 1014.9
20260905143031 33 28 11.3 19.3 0.00 0.00 0.00 39 1015.0
20260905142529 33 23 8.0 11.3 0.00 0.00 0.00 38 1015.0
20260905142030 33 40 4.8 12.9 0.00 0.00 0.00 38 1015.0
20260905141529 33 3 6.4 16.1 0.00 0.00 0.00 38 1015.0
20260905141029 33 22 4.8 11.3 0.00 0.00 0.00 37 1015.0
20260905140529 33 65 6.4 16.1 0.00 0.00 0.00 38 1015.0
20260905140030 33 41 6.4 14.5 0.00 0.00 0.00 38 1015.0
20260905135528 33 26 12.9 20.9 0.00 0.00 0.00 38 1015.1
20260905135030 33 34 6.4 19.3 0.00 0.00 0.00 39 1015.2
20260905134528 33 35 8.0 12.9 0.00 0.00 0.00 38 1015.2
20260905134030 33 35 11.3 20.9 0.00 0.00 0.00 38 1015.3
20260905133529 33 25 9.7 14.5 0.00 0.00 0.00 38 1015.3
20260905133030 33 24 11.3 14.5 0.00 0.00 0.00 37 1015.3
20260905132529 33 21 9.7 14.5 0.00 0.00 0.00 36 1015.4
20260905132030 33 10 9.7 16.1 0.00 0.00 0.00 37 1015.4
20260905131529 33 14 8.0 16.1 0.00 0.00 0.00 37 1015.4
20260905131030 33 22 6.4 14.5 0.00 0.00 0.00 38 1015.4
20260905130529 33 22 12.9 19.3 0.00 0.00 0.00 38 1015.5
20260905125529 33 35 9.7 14.5 0.00 0.00 0.00 38 1015.4
20260905125031 33 31 11.3 19.3 0.00 0.00 0.00 38 1015.4
20260905124529 33 2 8.0 14.5 0.00 0.00 0.00 38 1015.3
20260905124030 33 6 6.4 14.5 0.00 0.00 0.00 39 1015.4
20260905123030 33 12 6.4 19.3 0.00 0.00 0.00 39 1015.6
20260905122031 33 14 8.0 14.5 0.00 0.00 0.00 38 1015.6
20260905121529 33 9 14.5 19.3 0.00 0.00 0.00 38 1015.6
20260905121030 33 22 8.0 12.9 0.00 0.00 0.00 38 1015.8
20260905120030 33 31 8.0 14.5 0.00 0.00 0.00 38 1015.9
20260905115528 33 25 12.9 24.1 0.00 0.00 0.00 39 1015.8
20260905115031 33 24 14.5 19.3 0.00 0.00 0.00 38 1015.9
20260905114528 33 48 11.3 20.9 0.00 0.00 0.00 39 1016.0
20260905114030 33 38 14.5 20.9 0.00 0.00 0.00 38 1015.9
20260905113529 33 27 11.3 20.9 0.00 0.00 0.00 38 1015.8
20260905112529 33 22 6.4 20.9 0.00 0.00 0.00 38 1015.9
20260905112030 33 347 8.0 20.9 0.00 0.00 0.00 37 1015.9
20260905111528 33 6 16.1 20.9 0.00 0.00 0.00 38 1015.8
20260905111031 33 9 9.7 19.3 0.00 0.00 0.00 38 1015.8
20260905110033 33 46 11.3 20.9 0.00 0.00 0.00 37 1015.8
20260905105528 33 29 14.5 22.5 0.00 0.00 0.00 38 1015.9
20260905105030 34 36 8.0 22.5 0.00 0.00 0.00 38 1015.8
20260905104529 33 358 11.3 16.1 0.00 0.00 0.00 38 1015.9
20260905104030 33 1 8.0 11.3 0.00 0.00 0.00 38 1015.8
20260905103529 33 13 8.0 14.5 0.00 0.00 0.00 38 1015.9
20260905103030 33 357 8.0 12.9 0.00 0.00 0.00 39 1015.9
20260905102528 32 16 9.7 16.1 0.00 0.00 0.00 39 1015.8
20260905102030 32 337 9.7 16.1 0.00 0.00 0.00 40 1016.0
20260905101529 32 337 8.0 14.5 0.00 0.00 0.00 42 1016.1
20260905101031 31 53 9.7 16.1 0.00 0.00 0.00 43 1016.0
20260905100030 31 22 11.3 19.3 0.00 0.00 0.00 43 1016.0
20260905095529 32 0 11.3 19.3 0.00 0.00 0.00 43 1016.0
20260905094529 32 0 8.0 16.1 0.00 0.00 0.00 42 1015.9
20260905094030 32 8 11.3 16.1 0.00 0.00 0.00 41 1015.9
20260905093529 33 353 14.5 22.5 0.00 0.00 0.00 40 1015.9
20260905093030 33 350 14.5 19.3 0.00 0.00 0.00 39 1015.8
20260905092529 33 8 9.7 20.9 0.00 0.00 0.00 39 1016.0
20260905091529 33 354 8.0 11.3 0.00 0.00 0.00 38 1016.0
20260905091030 33 351 3.2 9.7 0.00 0.00 0.00 36 1015.8
20260905090528 33 0 6.4 9.7 0.00 0.00 0.00 36 1015.9
20260905090030 33 348 1.6 9.7 0.00 0.00 0.00 38 1015.8
20260905085529 32 345 1.6 9.7 0.00 0.00 0.00 37 1015.7
20260905085030 32 318 1.6 9.7 0.00 0.00 0.00 36 1015.6
20260905084529 32 340 6.4 16.1 0.00 0.00 0.00 36 1015.7
20260905084030 32 2 6.4 11.3 0.00 0.00 0.00 36 1015.5
20260905083528 32 324 3.2 9.7 0.00 0.00 0.00 36 1015.5
20260905083031 32 339 8.0 12.9 0.00 0.00 0.00 36 1015.6
20260905082529 32 336 6.4 11.3 0.00 0.00 0.00 37 1015.6
20260905082031 32 312 3.2 9.7 0.00 0.00 0.00 39 1015.6
20260905081030 32 344 3.2 9.7 0.00 0.00 0.00 39 1015.6
20260905080528 32 336 4.8 11.3 0.00 0.00 0.00 40 1015.6